This is the latest recevied weather packets stored in our database for station/object CE7LGA-10. If no packets are shown the sender has not sent any weather packets the latest 10 day(s).
| Time | Temp. | Humidity | Pressure | Rain* | Wind** | Luminosity | Snow |
|---|---|---|---|---|---|---|---|
| 1787670504 | 12.78° C | 75% | 989.8 hPa | - | - | - | - |
| 1787669604 | 12.22° C | 74% | 989.9 hPa | - | - | - | - |
| 1787668704 | 12.78° C | 74% | 990 hPa | - | - | - | - |
| 1787667804 | 12.78° C | 74% | 990.6 hPa | - | - | - | - |
| 1787666904 | 12.78° C | 74% | 991 hPa | - | - | - | - |
| 1787666004 | 12.78° C | 74% | 991.3 hPa | - | - | - | - |
| 1787665104 | 12.78° C | 74% | 991.6 hPa | - | - | - | - |
| 1787664204 | 12.78° C | 73% | 991.8 hPa | - | - | - | - |
| 1787663304 | 12.78° C | 74% | 992.1 hPa | - | - | - | - |
| 1787662403 | 12.78° C | 74% | 992 hPa | - | - | - | - |
| 1787661503 | 12.78° C | 74% | 992.2 hPa | - | - | - | - |
| 1787660603 | 12.78° C | 74% | 992.5 hPa | - | - | - | - |
| 1787659703 | 12.78° C | 74% | 992.6 hPa | - | - | - | - |
| 1787658803 | 12.78° C | 74% | 992.8 hPa | - | - | - | - |
| 1787657903 | 13.33° C | 77% | 993.2 hPa | - | - | - | - |
| 1787657003 | 13.33° C | 79% | 993.4 hPa | - | - | - | - |
| 1787656103 | 12.78° C | 73% | 993.4 hPa | - | - | - | - |
| 1787655202 | 12.78° C | 72% | 993.8 hPa | - | - | - | - |
| 1787654305 | 12.78° C | 73% | 993.8 hPa | - | - | - | - |
| 1787653405 | 12.78° C | 71% | 994.1 hPa | - | - | - | - |
| 1787652505 | 12.78° C | 71% | 994 hPa | - | - | - | - |
| 1787651604 | 12.78° C | 71% | 994.2 hPa | - | - | - | - |
| 1787650704 | 12.78° C | 72% | 994.6 hPa | - | - | - | - |
| 1787649804 | 12.78° C | 72% | 995.1 hPa | - | - | - | - |
| 1787648904 | 12.78° C | 71% | 995.3 hPa | - | - | - | - |
* Rain since midnight (hover to see other rain measurements)
** Current wind speed in m/s (hover to see current wind gust speed)